Location: Rancho Del Sol Observatory
(38.7214°N, 120.6350°W)
Time: 01:30:49
(UTC-07:00)

Cosmos 2221 Rocket - Visible Passes

Search period start: 26 October 2014 00:00
Search period end: 04 November 2014 23:00
Orbit: 621 x 651 km, 82.5° (Epoch: 25 October)

Date Brightness Start Highest point End Pass type
(mag) Time Alt. Az. Time Alt. Az. Time Alt. Az.
26 Oct 6.7 04:41:46 10° NE 04:44:01 14° ENE 04:46:15 10° ESE visible
26 Oct 3.8 06:18:16 10° NNW 06:22:30 47° W 06:26:43 10° SSW visible
26 Oct 4.1 18:50:28 10° SSW 18:54:55 66° W 18:59:21 10° N visible
27 Oct 5.6 05:03:03 10° NNE 05:06:53 28° ENE 05:10:41 10° SE visible
27 Oct 4.7 06:41:32 10° NW 06:44:54 22° W 06:48:16 10° SW visible
27 Oct 5.7 19:13:41 10° SW 19:17:37 30° WNW 19:21:32 10° NNW visible
28 Oct 4.0 05:25:13 10° N 05:29:35 62° E 05:33:57 10° SSE visible
28 Oct 6.6 19:38:00 10° WSW 19:40:28 15° WNW 19:42:56 10° NW visible
29 Oct 6.8 04:12:10 10° NE 04:13:33 11° ENE 04:14:57 10° E visible
29 Oct 3.5 05:47:49 10° NNW 05:52:10 58° W 05:56:29 10° S visible
30 Oct 5.8 04:35:45 23° ENE 04:36:27 24° ENE 04:40:01 10° SE visible
30 Oct 4.5 06:13:28 23° WNW 06:14:36 26° W 06:18:16 10° SW visible
30 Oct 5.4 18:43:07 10° SW 18:47:12 36° WNW 18:51:18 10° N visible
31 Oct 5.1 05:01:05 30° SE 05:01:05 30° SE 05:03:30 10° SSE visible
31 Oct 6.5 19:07:03 10° WSW 19:10:01 17° WNW 19:12:59 10° NNW visible
01 Nov 5.9 05:25:43 13° S 05:25:43 13° S 05:26:12 10° S visible
03 Nov 6.3 17:36:14 10° WSW 17:39:34 21° WNW 17:42:54 10° NNW visible
